Location: Berg
(48.4333°N, 13.9167°E)
Time: 07:59:36
(UTC+00:00)

Cosmos 2369 Rocket - Pass Details

Date: 18 September 2020
Orbit: 827 x 854 km, 71.0° (Epoch: 27 October)

Event Time Altitude Azimuth Distance (km) Brightness Sun altitude
Exits shadow 22:59:40 19° 33° (NNE) 1,900 4.4 -40.2°
Drops below altitude 10° 23:01:12 10° 31° (NNE) 2,468 5.2 -40.2°
Sets 23:03:39 0° 30° (NNE) 3,411 6.1 -40.2°
